SCP
-0 -0 0 0 0 0 0 0 0 0 0 -0 -0 -0 -0 -0 -0 -0 -0 -0 -0 -0 -0 -0 -0 -0 -0 -0 -0 -0 0 0 -0 -0 -0 -0 -0 -0 -0 -0 -0 -0 -0
-0 0 0 0 0 0 0 0 -0 -0 -0 0 -0 0 0 -0 -0 -0 -0 0 0 -0 -0 -0 -0 -0 -0 -0 -0 -0 0 -0 -0 -0 0 -0 -0 -0 -0 -0 -0 -0 -0
-0 0 -0 -0 0 -0 0 -0 -0 -0 -0 0 0 0 0 -0 0 -0 0 -0 -0 -0 -0 -0 -0 -0 -0 -0 -0 -0 -0 -0 -0 -0 -0 -0 -0 -0 -0 -0 -0 -0 -0
-0 0 -0 0 0 0 0 -0 -0 -0 0 0 0 0 -0 -0 -0 -0 -0 -0 -0 -0 0 -0 -0 -0 -0 -0 -0 -0 -0 -0 0 -0 -0 -0 0 0 -0 -0 -0 -0 -0
0 -0 -0 -0 -0 -0 0 0 0 -0 -0 0 0 -0 -0 -0 -0 -0 -0 -0 -0 -0 -0 -0 -0 -0 -0 -0 -0 -0 0 -0 -0 -0 -0 -0 -0 -0 0 0 -0 -0 -0
0 -0 0 -0 -0 -0 0 0 0 0 0 0 0 0 -0 -0 -0 -0 -0 -0 -0 0 0 0 0 0 0 0 0 0 0 0 -0 -0 -0 -0 -0 -0 -0 0 -0 -0 -0
-0 -0 -0 0 0 -0 0 0 0 0 0 0 0 0 0 0 0 0 0 0 0 0 0 0 0 0 0 0 0 0 0 0 -0 -0 -0 -0 0 0 0 0 -0 -0 -0
-0 -0 -0 -0 -0 -0 -0 0 0 0 0 0 0 0 0 0 0 0 0 0 0 0 0 0 0 -0 0 -0 -0 -0 0 -0 0 -0 0 0 0 -0 -0 -0 -0 -0 -0
-0 -0 0 0 -0 -0 -0 -0 -0 -0 -0 0 0 0 0 0 0 0 -0 0 -0 -0 -0 -0 -0 -0 -0 -0 -0 -0 -0 0 0 0 0 0 -0 -0 -0 -0 -0 -0 -0
-0 -0 0 -0 -0 -0 -0 -0 -0 -0 -0 0 0 0 0 0 0 -0 -0 -0 -0 -0 -0 -0 -0 -0 -0 -0 -0 -0 -0 0 0 0 -0 -0 0 0 0 -0 -0 -0 -0
-0 -0 -0 0 0 -0 -0 0 -0 -0 -0 -0 -0 0 0 -0 0 0 0 -0 -0 -0 -0 -0 -0 -0 -0 -0 -0 -0 -0 0 0 0 0 -0 -0 -0 -0 -0 -0 -0 -0
0 0 0 -0 -0 -0 -0 -0 -0 -0 -0 -0 -0 -0 -0 -0 0 0 -0 -0 -0 -0 -0 -0 -0 -0 -0 0 0 0 0 0 0 0 0 -0 -0 -0 -0 -0 -0 -0 -0
-0 0 -0 -0 0 -0 -0 -0 -0 -0 -0 -0 0 0 -0 -0 -0 0 0 0 0 -0 0 0 0 -0 -0 -0 0 0 0 -0 -0 0 0 -0 -0 -0 -0 -0 -0 -0 -0
-0 -0 -0 -0 -0 -0 0 0 0 -0 -0 -0 0 0 0 0 0 0 0 -0 0 0 0 0 0 -0 0 -0 0 0 -0 -0 0 -0 -0 -0 -0 -0 -0 -0 -0 -0 -0
-0 -0 -0 -0 -0 -0 0 0 0 0 0 0 0 0 0 0 -0 0 -0 -0 0 0 0 0 0 0 -0 -0 0 -0 0 -0 -0 0 0 -0 -0 -0 -0 -0 -0 -0 -0
-0 -0 -0 -0 -0 -0 -0 0 -0 -0 0 0 0 0 -0 -0 0 -0 -0 -0 0 -0 0 0 -0 0 0 -0 -0 -0 -0 -0 -0 -0 -0 0 -0 -0 -0 -0 -0 -0 -0
-0 -0 -0 -0 -0 -0 -0 0 -0 0 0 0 -0 0 -0 -0 -0 -0 -0 -0 0 -0 0 0 0 0 0 0 -0 -0 -0 -0 -0 0 0 0 0 -0 -0 -0 -0 -0 0
-0 -0 -0 -0 -0 -0 -0 0 0 -0 0 0 0 0 -0 -0 -0 -0 0 0 -0 0 0 0 0 0 0 0 -0 -0 0 -0 0 0 0 -0 -0 0 0 -0 -0 -0 -0
-0 -0 -0 -0 -0 -0 -0 0 0 0 0 0 0 0 -0 -0 0 0 0 0 -0 0 0 0 0 0 0 0 -0 0 0 0 -0 0 -0 0 0 0 0 0 -0 -0 -0
-0 -0 -0 -0 -0 -0 0 0 0 0 0 0 0 0 0 0 0 0 0 0 0 0 0 0 0 0 0 0 0 -0 0 0 0 0 0 0 0 0 0 0 -0 -0 0
-0 -0 -0 -0 -0 -0 0 0 0 0 0 0 0 0 0 0 0 0 0 -0 0 0 0 0 0 0 0 0 0 0 0 0 -0 0 0 -0 0 0 0 0 -0 0 0
0 -0 -0 -0 0 -0 -0 0 0 0 0 0 0 0 0 0 0 0 0 0 0 0 0 0 0 0 0 0 0 0 0 0 0 0 -0 0 -0 0 0 0 0 0 0
0 0 -0 -0 -0 0 -0 0 0 0 0 0 0 0 0 0 0 0 0 0 0 0 0 0 0 0 0 0 0 0 0 0 0 0 0 0 0 -0 0 0 0 0 0
-0 0 0 0 0 0 0 -0 0 0 0 0 0 0 0 0 0 0 0 0 0 0 0 0 0 0 0 0 0 0 0 0 0 0 0 0 0 -0 -0 0 0 0 0
0 0 0 0 0 0 0 -0 0 0 0 0 0 0 0 -0 -0 0 1 0 0 0 0 0 0 0 0 0 0 0 0 0 0 0 0 0 0 -0 -0 0 0 0 0
0 0 0 0 0 0 0 0 0 0 0 0 0 0 0 0 -0 0 0 1 1 1 0 0 0 0 0 0 0 0 0 0 0 0 0 0 0 0 0 0 0 0 0
Wind_Speed_500mb
59 56 52 47 43 42 42 42 41 39 36 35 34 34 33 31 29 29 29 27 25 23 20 17 13 11 11 11 11 13 14 12 11 10 9 8 7 6 9 15 14 15 16
66 58 54 51 46 43 44 43 41 38 33 31 31 32 32 30 28 26 25 24 21 18 15 13 12 10 9 10 10 12 15 17 14 12 10 9 9 11 12 14 14 16 15
66 60 54 51 48 45 44 42 39 36 34 26 27 29 29 28 27 25 23 20 18 16 14 12 10 9 7 7 6 8 10 12 14 11 9 8 9 12 12 9 11 12 16
65 60 54 51 48 46 44 41 37 35 31 28 28 28 30 29 26 24 21 18 16 14 12 11 9 7 7 7 6 6 8 10 11 12 10 8 6 10 11 11 13 9 12
65 59 53 50 47 46 44 37 34 32 30 28 27 27 27 26 24 22 20 17 14 13 12 10 10 9 10 9 10 8 9 10 12 11 12 18 18 10 10 11 11 9 12
65 57 52 48 45 42 37 33 31 30 30 29 26 25 24 21 19 17 15 13 12 12 12 12 13 14 14 14 14 14 13 12 14 11 5 10 10 10 12 13 12 10 14
63 56 51 47 42 39 36 32 31 30 30 27 25 22 20 17 15 13 12 11 11 12 12 12 12 12 13 13 15 17 18 17 17 15 12 11 8 7 11 13 15 14 15
58 55 51 45 42 38 35 33 32 30 29 27 24 20 17 14 13 11 10 9 8 8 8 8 9 9 10 11 11 13 16 20 20 17 13 12 11 13 17 16 16 16 18
52 50 48 45 42 38 35 33 31 29 27 25 22 18 15 13 11 10 9 8 6 5 6 7 8 9 10 11 11 12 14 18 20 19 16 11 8 11 18 17 15 16 16
53 48 45 43 42 39 36 33 29 27 25 23 20 17 16 15 12 11 9 7 5 7 8 10 10 11 14 16 14 13 14 16 18 22 19 15 10 16 20 19 18 17 18
59 53 50 46 43 38 34 31 28 25 24 23 20 19 19 16 13 10 8 4 6 8 10 12 11 10 9 10 12 14 16 13 18 18 15 14 15 13 16 24 19 21 23
60 54 51 48 42 38 35 32 28 25 24 22 20 22 18 15 12 11 9 4 7 8 7 6 8 9 11 9 10 13 14 15 18 18 17 11 16 17 17 21 24 22 26
50 52 50 48 44 40 36 30 28 26 23 21 23 25 19 15 11 11 7 10 12 17 10 9 5 3 7 9 13 17 16 18 19 16 18 17 20 22 24 23 23 26 27
51 44 49 48 46 41 34 30 26 26 23 16 20 25 19 14 15 13 10 9 8 9 12 14 13 6 13 14 18 17 18 22 23 22 23 21 22 23 23 18 20 24 26
54 48 44 46 45 41 37 35 27 31 23 18 16 12 14 18 16 13 16 14 13 12 16 13 15 15 13 14 20 23 25 22 25 25 17 21 19 14 16 18 17 16 20
54 50 45 43 39 39 34 42 27 28 24 23 22 16 13 12 17 14 18 14 15 19 17 17 15 16 18 16 18 22 28 30 26 25 19 23 14 11 5 9 14 11 12
60 54 52 44 44 42 35 38 36 32 29 22 26 23 17 17 18 20 18 16 19 20 20 18 19 19 23 18 20 26 36 31 26 24 19 21 18 15 8 7 7 11 10
62 62 54 52 52 48 44 39 36 35 34 28 26 23 23 23 22 24 23 21 25 24 20 22 22 21 22 24 20 19 33 41 26 22 22 29 24 21 13 11 7 9 8
70 67 66 60 60 56 50 46 41 38 38 34 33 28 24 28 31 32 26 20 19 26 28 32 33 26 28 27 24 21 24 28 24 26 23 24 28 27 21 15 11 10 6
75 74 71 65 65 64 58 53 48 48 47 41 46 43 36 32 30 32 34 22 26 26 27 30 29 29 31 18 23 26 32 31 31 33 31 26 33 34 22 18 17 13 11
85 81 81 76 70 68 67 64 56 53 46 53 55 50 47 39 31 32 33 29 23 27 31 33 29 28 30 28 27 32 31 30 27 33 35 35 32 33 25 24 23 17 17
93 93 88 87 81 73 68 65 60 51 47 38 46 54 53 42 30 29 20 24 26 29 24 23 27 18 18 19 28 32 29 29 36 42 39 43 33 37 30 31 28 20 21
91 95 92 90 88 78 70 70 67 60 51 38 39 46 55 46 37 25 31 28 27 33 27 28 24 23 20 24 28 27 12 9 19 13 36 42 45 53 34 34 31 25 22
94 87 89 82 84 82 75 72 70 66 57 44 38 41 45 48 42 36 38 37 32 32 27 29 27 29 28 29 27 29 30 31 16 14 12 35 40 37 35 39 44 35 26
93 88 88 83 79 80 77 74 70 67 57 41 31 40 43 44 40 42 35 42 36 36 32 32 32 28 31 27 31 31 29 30 26 30 18 14 30 42 36 42 43 39 33
86 91 89 87 78 77 76 74 71 64 57 48 39 52 50 42 32 32 32 35 42 41 38 40 32 32 29 31 32 33 34 30 28 27 21 18 13 26 19 28 36 32 33
Wind_Direction_500mb
164 158 158 161 162 157 154 154 154 151 152 153 154 156 159 159 157 154 153 156 160 162 167 175 178 184 195 213 222 231 237 233 229 228 232 229 216 193 172 162 152 152 148
157 160 161 160 162 159 158 157 155 155 157 157 159 161 163 162 162 164 166 169 173 178 188 196 198 203 209 222 230 236 239 235 227 224 223 218 200 169 162 156 155 166 165
161 160 162 162 162 162 162 165 162 166 168 174 173 177 176 176 175 178 179 180 180 183 187 189 193 194 194 199 210 229 223 221 221 211 198 185 191 183 187 179 157 169 173
164 163 164 162 164 165 165 166 167 176 181 179 176 171 174 176 173 175 180 180 180 178 186 189 193 194 207 209 197 197 189 189 190 177 172 153 177 207 209 199 179 164 178
167 166 165 164 166 166 165 167 174 177 172 165 160 166 172 176 180 183 182 179 186 192 200 210 220 221 224 226 223 211 197 194 185 166 169 260 259 227 213 205 207 193 194
169 169 168 168 170 170 173 171 175 173 168 166 161 158 158 162 171 180 187 193 208 225 236 240 247 243 234 233 230 228 223 212 207 193 197 108 168 205 228 216 225 219 211
170 170 174 173 175 176 174 176 178 173 171 172 168 169 171 178 188 200 214 223 231 243 248 250 247 250 246 237 232 233 236 229 223 211 199 229 228 249 244 233 227 223 225
172 173 176 177 180 182 179 181 178 177 177 176 175 179 184 196 200 204 210 217 220 233 247 254 256 255 258 255 248 239 238 241 235 227 226 232 222 250 258 253 242 229 234
179 179 180 181 184 187 183 184 183 183 182 181 182 188 194 190 186 184 181 189 204 220 248 266 269 263 252 246 240 243 242 247 248 237 219 210 229 257 260 261 254 246 234
184 184 186 188 190 191 188 189 188 188 187 190 191 192 184 172 169 173 168 175 220 250 255 265 256 257 249 238 239 244 248 247 247 239 225 222 237 249 247 257 259 254 242
190 190 191 194 196 197 196 195 194 194 194 198 195 185 173 161 159 161 161 198 246 272 286 276 280 269 259 238 236 238 240 246 238 244 242 244 246 257 256 257 263 262 252
193 195 197 198 198 200 200 198 198 198 200 201 193 173 168 176 178 202 205 257 301 318 332 319 284 265 251 240 239 238 232 234 235 235 235 256 274 277 282 268 266 268 257
195 199 202 203 200 201 203 200 198 198 203 205 194 181 186 198 220 220 240 277 291 303 338 335 325 254 232 239 235 242 233 227 220 233 249 253 275 284 280 281 272 269 260
202 206 209 207 205 204 203 204 197 199 196 191 192 200 215 220 235 224 262 270 293 302 294 287 303 272 246 247 245 232 227 232 232 241 256 265 271 275 281 281 278 269 262
207 207 203 204 209 210 208 198 202 198 192 187 192 197 218 235 220 234 271 281 290 302 314 303 308 277 280 248 244 233 233 231 241 260 252 252 252 265 275 279 278 274 266
211 208 199 200 199 203 211 205 207 198 204 222 229 223 231 232 207 239 256 279 266 289 300 292 308 276 270 268 262 259 240 237 251 243 252 228 247 246 257 285 279 287 292
214 212 208 208 206 205 204 201 206 211 221 227 224 216 219 232 242 258 270 260 268 281 288 279 297 275 273 280 275 268 259 256 253 267 247 231 255 253 256 274 306 280 304
216 216 216 215 216 215 215 215 218 217 227 234 226 230 230 239 255 282 286 276 280 279 278 287 293 281 274 277 285 286 263 262 263 261 266 239 240 259 255 276 311 319 296
222 222 219 219 221 224 224 223 227 231 232 232 235 237 245 246 264 275 270 277 264 267 272 283 295 275 286 278 273 277 277 271 250 256 255 244 247 256 247 270 288 301 292
227 228 228 226 225 226 227 226 228 232 236 237 241 249 256 249 257 268 264 273 265 273 274 288 289 283 296 264 265 283 289 282 251 265 241 244 239 249 252 261 266 277 273
231 232 230 228 228 228 226 225 225 231 240 245 246 247 245 241 255 272 268 244 263 285 279 288 277 273 300 270 269 283 292 280 251 244 244 243 238 239 264 259 257 268 279
230 233 233 231 232 230 229 231 231 235 238 258 251 246 232 237 251 268 256 250 269 284 275 269 305 283 258 266 260 282 287 286 276 252 241 244 248 235 243 239 251 252 266
231 232 233 232 232 231 230 229 230 233 238 244 246 237 229 236 242 251 260 256 271 279 274 280 280 282 267 258 255 257 269 272 324 290 251 239 263 242 235 241 242 242 253
230 233 233 234 231 231 231 230 230 235 239 250 253 231 229 233 239 251 257 253 265 275 265 272 276 275 280 256 252 265 257 290 292 295 276 255 244 231 255 247 235 244 244
231 231 232 234 231 230 232 233 233 236 245 250 246 219 214 223 240 253 259 255 260 268 269 268 271 282 270 264 248 253 265 272 280 290 296 294 239 237 242 239 235 246 250
234 232 231 233 233 231 232 234 236 240 243 240 233 212 213 223 242 250 254 258 261 267 270 264 272 270 260 255 249 250 255 263 272 283 279 238 224 238 250 248 248 243 253
Wind_Speed_850mb
59 56 52 47 43 42 42 42 41 39 36 35 34 34 33 31 29 29 29 27 25 23 20 17 13 11 11 11 11 13 14 12 11 10 9 8 7 6 9 15 14 15 16
66 58 54 51 46 43 44 43 41 38 33 31 31 32 32 30 28 26 25 24 21 18 15 13 12 10 9 10 10 12 15 17 14 12 10 9 9 11 12 14 14 16 15
66 60 54 51 48 45 44 42 39 36 34 26 27 29 29 28 27 25 23 20 18 16 14 12 10 9 7 7 6 8 10 12 14 11 9 8 9 12 12 9 11 12 16
65 60 54 51 48 46 44 41 37 35 31 28 28 28 30 29 26 24 21 18 16 14 12 11 9 7 7 7 6 6 8 10 11 12 10 8 6 10 11 11 13 9 12
65 59 53 50 47 46 44 37 34 32 30 28 27 27 27 26 24 22 20 17 14 13 12 10 10 9 10 9 10 8 9 10 12 11 12 18 18 10 10 11 11 9 12
65 57 52 48 45 42 37 33 31 30 30 29 26 25 24 21 19 17 15 13 12 12 12 12 13 14 14 14 14 14 13 12 14 11 5 10 10 10 12 13 12 10 14
63 56 51 47 42 39 36 32 31 30 30 27 25 22 20 17 15 13 12 11 11 12 12 12 12 12 13 13 15 17 18 17 17 15 12 11 8 7 11 13 15 14 15
58 55 51 45 42 38 35 33 32 30 29 27 24 20 17 14 13 11 10 9 8 8 8 8 9 9 10 11 11 13 16 20 20 17 13 12 11 13 17 16 16 16 18
52 50 48 45 42 38 35 33 31 29 27 25 22 18 15 13 11 10 9 8 6 5 6 7 8 9 10 11 11 12 14 18 20 19 16 11 8 11 18 17 15 16 16
53 48 45 43 42 39 36 33 29 27 25 23 20 17 16 15 12 11 9 7 5 7 8 10 10 11 14 16 14 13 14 16 18 22 19 15 10 16 20 19 18 17 18
59 53 50 46 43 38 34 31 28 25 24 23 20 19 19 16 13 10 8 4 6 8 10 12 11 10 9 10 12 14 16 13 18 18 15 14 15 13 16 24 19 21 23
60 54 51 48 42 38 35 32 28 25 24 22 20 22 18 15 12 11 9 4 7 8 7 6 8 9 11 9 10 13 14 15 18 18 17 11 16 17 17 21 24 22 26
50 52 50 48 44 40 36 30 28 26 23 21 23 25 19 15 11 11 7 10 12 17 10 9 5 3 7 9 13 17 16 18 19 16 18 17 20 22 24 23 23 26 27
51 44 49 48 46 41 34 30 26 26 23 16 20 25 19 14 15 13 10 9 8 9 12 14 13 6 13 14 18 17 18 22 23 22 23 21 22 23 23 18 20 24 26
54 48 44 46 45 41 37 35 27 31 23 18 16 12 14 18 16 13 16 14 13 12 16 13 15 15 13 14 20 23 25 22 25 25 17 21 19 14 16 18 17 16 20
54 50 45 43 39 39 34 42 27 28 24 23 22 16 13 12 17 14 18 14 15 19 17 17 15 16 18 16 18 22 28 30 26 25 19 23 14 11 5 9 14 11 12
60 54 52 44 44 42 35 38 36 32 29 22 26 23 17 17 18 20 18 16 19 20 20 18 19 19 23 18 20 26 36 31 26 24 19 21 18 15 8 7 7 11 10
62 62 54 52 52 48 44 39 36 35 34 28 26 23 23 23 22 24 23 21 25 24 20 22 22 21 22 24 20 19 33 41 26 22 22 29 24 21 13 11 7 9 8
70 67 66 60 60 56 50 46 41 38 38 34 33 28 24 28 31 32 26 20 19 26 28 32 33 26 28 27 24 21 24 28 24 26 23 24 28 27 21 15 11 10 6
75 74 71 65 65 64 58 53 48 48 47 41 46 43 36 32 30 32 34 22 26 26 27 30 29 29 31 18 23 26 32 31 31 33 31 26 33 34 22 18 17 13 11
85 81 81 76 70 68 67 64 56 53 46 53 55 50 47 39 31 32 33 29 23 27 31 33 29 28 30 28 27 32 31 30 27 33 35 35 32 33 25 24 23 17 17
93 93 88 87 81 73 68 65 60 51 47 38 46 54 53 42 30 29 20 24 26 29 24 23 27 18 18 19 28 32 29 29 36 42 39 43 33 37 30 31 28 20 21
91 95 92 90 88 78 70 70 67 60 51 38 39 46 55 46 37 25 31 28 27 33 27 28 24 23 20 24 28 27 12 9 19 13 36 42 45 53 34 34 31 25 22
94 87 89 82 84 82 75 72 70 66 57 44 38 41 45 48 42 36 38 37 32 32 27 29 27 29 28 29 27 29 30 31 16 14 12 35 40 37 35 39 44 35 26
93 88 88 83 79 80 77 74 70 67 57 41 31 40 43 44 40 42 35 42 36 36 32 32 32 28 31 27 31 31 29 30 26 30 18 14 30 42 36 42 43 39 33
86 91 89 87 78 77 76 74 71 64 57 48 39 52 50 42 32 32 32 35 42 41 38 40 32 32 29 31 32 33 34 30 28 27 21 18 13 26 19 28 36 32 33
Wind_Direction_850mb
164 158 158 161 162 157 154 154 154 151 152 153 154 156 159 159 157 154 153 156 160 162 167 175 178 184 195 213 222 231 237 233 229 228 232 229 216 193 172 162 152 152 148
157 160 161 160 162 159 158 157 155 155 157 157 159 161 163 162 162 164 166 169 173 178 188 196 198 203 209 222 230 236 239 235 227 224 223 218 200 169 162 156 155 166 165
161 160 162 162 162 162 162 165 162 166 168 174 173 177 176 176 175 178 179 180 180 183 187 189 193 194 194 199 210 229 223 221 221 211 198 185 191 183 187 179 157 169 173
164 163 164 162 164 165 165 166 167 176 181 179 176 171 174 176 173 175 180 180 180 178 186 189 193 194 207 209 197 197 189 189 190 177 172 153 177 207 209 199 179 164 178
167 166 165 164 166 166 165 167 174 177 172 165 160 166 172 176 180 183 182 179 186 192 200 210 220 221 224 226 223 211 197 194 185 166 169 260 259 227 213 205 207 193 194
169 169 168 168 170 170 173 171 175 173 168 166 161 158 158 162 171 180 187 193 208 225 236 240 247 243 234 233 230 228 223 212 207 193 197 108 168 205 228 216 225 219 211
170 170 174 173 175 176 174 176 178 173 171 172 168 169 171 178 188 200 214 223 231 243 248 250 247 250 246 237 232 233 236 229 223 211 199 229 228 249 244 233 227 223 225
172 173 176 177 180 182 179 181 178 177 177 176 175 179 184 196 200 204 210 217 220 233 247 254 256 255 258 255 248 239 238 241 235 227 226 232 222 250 258 253 242 229 234
179 179 180 181 184 187 183 184 183 183 182 181 182 188 194 190 186 184 181 189 204 220 248 266 269 263 252 246 240 243 242 247 248 237 219 210 229 257 260 261 254 246 234
184 184 186 188 190 191 188 189 188 188 187 190 191 192 184 172 169 173 168 175 220 250 255 265 256 257 249 238 239 244 248 247 247 239 225 222 237 249 247 257 259 254 242
190 190 191 194 196 197 196 195 194 194 194 198 195 185 173 161 159 161 161 198 246 272 286 276 280 269 259 238 236 238 240 246 238 244 242 244 246 257 256 257 263 262 252
193 195 197 198 198 200 200 198 198 198 200 201 193 173 168 176 178 202 205 257 301 318 332 319 284 265 251 240 239 238 232 234 235 235 235 256 274 277 282 268 266 268 257
195 199 202 203 200 201 203 200 198 198 203 205 194 181 186 198 220 220 240 277 291 303 338 335 325 254 232 239 235 242 233 227 220 233 249 253 275 284 280 281 272 269 260
202 206 209 207 205 204 203 204 197 199 196 191 192 200 215 220 235 224 262 270 293 302 294 287 303 272 246 247 245 232 227 232 232 241 256 265 271 275 281 281 278 269 262
207 207 203 204 209 210 208 198 202 198 192 187 192 197 218 235 220 234 271 281 290 302 314 303 308 277 280 248 244 233 233 231 241 260 252 252 252 265 275 279 278 274 266
211 208 199 200 199 203 211 205 207 198 204 222 229 223 231 232 207 239 256 279 266 289 300 292 308 276 270 268 262 259 240 237 251 243 252 228 247 246 257 285 279 287 292
214 212 208 208 206 205 204 201 206 211 221 227 224 216 219 232 242 258 270 260 268 281 288 279 297 275 273 280 275 268 259 256 253 267 247 231 255 253 256 274 306 280 304
216 216 216 215 216 215 215 215 218 217 227 234 226 230 230 239 255 282 286 276 280 279 278 287 293 281 274 277 285 286 263 262 263 261 266 239 240 259 255 276 311 319 296
222 222 219 219 221 224 224 223 227 231 232 232 235 237 245 246 264 275 270 277 264 267 272 283 295 275 286 278 273 277 277 271 250 256 255 244 247 256 247 270 288 301 292
227 228 228 226 225 226 227 226 228 232 236 237 241 249 256 249 257 268 264 273 265 273 274 288 289 283 296 264 265 283 289 282 251 265 241 244 239 249 252 261 266 277 273
231 232 230 228 228 228 226 225 225 231 240 245 246 247 245 241 255 272 268 244 263 285 279 288 277 273 300 270 269 283 292 280 251 244 244 243 238 239 264 259 257 268 279
230 233 233 231 232 230 229 231 231 235 238 258 251 246 232 237 251 268 256 250 269 284 275 269 305 283 258 266 260 282 287 286 276 252 241 244 248 235 243 239 251 252 266
231 232 233 232 232 231 230 229 230 233 238 244 246 237 229 236 242 251 260 256 271 279 274 280 280 282 267 258 255 257 269 272 324 290 251 239 263 242 235 241 242 242 253
230 233 233 234 231 231 231 230 230 235 239 250 253 231 229 233 239 251 257 253 265 275 265 272 276 275 280 256 252 265 257 290 292 295 276 255 244 231 255 247 235 244 244
231 231 232 234 231 230 232 233 233 236 245 250 246 219 214 223 240 253 259 255 260 268 269 268 271 282 270 264 248 253 265 272 280 290 296 294 239 237 242 239 235 246 250
234 232 231 233 233 231 232 234 236 240 243 240 233 212 213 223 242 250 254 258 261 267 270 264 272 270 260 255 249 250 255 263 272 283 279 238 224 238 250 248 248 243 253